Cape Byron Observation History
Time Wind Speed Temp Pressure Rel. Hum Rain
07/01:00pm SE 9-11 kts 25.5°c 1015.3 hPa 72% 0.2mm
07/12:30pm SE 9-11 kts 24.7°c 1015.5 hPa 73% 0.2mm
07/12:00pm SE 9-11 kts 24.8°c 1015.7 hPa 72% 0.2mm
07/11:30am SE 6-8 kts 24.2°c 1016.0 hPa 71% 0.2mm
07/11:00am SSE 7-10 kts 23.6°c 1016.3 hPa 75% 0.0mm
07/10:30am SSW 8-11 kts 23.0°c 1016.3 hPa 76% 0.0mm
07/10:00am S 8-10 kts 22.9°c 1016.2 hPa 77% 0.0mm
07/09:30am SSW 5-7 kts 22.1°c 1016.1 hPa 80% 0.0mm
07/09:00am SW 9-12 kts 20.8°c 1015.8 hPa 86% 4.8mm
07/08:30am SW 9-12 kts 19.7°c 1015.6 hPa 93% 4.8mm
07/08:00am SW 9-12 kts 19.2°c 1015.4 hPa 93% 4.8mm
07/07:30am SW 10-13 kts 19.2°c 1015.0 hPa 93% 4.8mm
07/07:00am SSW 10-12 kts 19.1°c 1014.7 hPa 94% 4.8mm
07/06:30am WSW 10-13 kts 19.1°c 1014.4 hPa 93% 4.8mm
07/06:00am WSW 11-13 kts 19.1°c 1013.9 hPa 93% 4.8mm
07/05:30am SW 9-11 kts 18.9°c 1013.6 hPa 95% 4.8mm
07/05:00am SW 8-11 kts 19.1°c 1013.3 hPa 95% 4.8mm
07/04:30am SW 9-10 kts 19.2°c 1013.3 hPa 95% 4.8mm
07/04:00am SSW 8-11 kts 19.2°c 1013.2 hPa 95% 4.8mm
07/03:30am SW 10-13 kts 19.2°c 1013.1 hPa 95% 4.8mm
07/03:00am SW 8-10 kts 19.3°c 1013.2 hPa 93% 4.8mm
07/02:30am SE 9-13 kts 20.3°c 1013.3 hPa 88% 4.2mm
07/02:00am SSW 6-9 kts 21.5°c 1013.3 hPa 75% 3.4mm
07/01:30am SE 10-13 kts 22.6°c 1013.3 hPa 69% 3.4mm
07/01:00am SE 10-13 kts 22.3°c 1013.4 hPa 72% 3.4mm
07/12:30am SE 10-15 kts 22.0°c 1013.5 hPa 74% 3.4mm
07/12:00am SE 10-13 kts 22.0°c 1013.5 hPa 74% 3.4mm
Time Wind Speed Temp Pressure Rel. Hum Rain
06/11:30pm SE 11-16 kts 20.9°c 1013.5 hPa 81% 3.2mm
06/11:00pm SE 13-19 kts 22.5°c 1013.3 hPa 73% 3.0mm
06/10:30pm ESE 11-15 kts 22.7°c 1013.3 hPa 70% 3.0mm
06/10:00pm ESE 13-16 kts 22.7°c 1013.3 hPa 68% 3.0mm
06/09:30pm ESE 14-17 kts 22.8°c 1013.0 hPa 70% 3.0mm
06/09:00pm ESE 14-19 kts 22.7°c 1012.5 hPa 73% 3.0mm
06/08:30pm ESE 16-19 kts 22.5°c 1012.0 hPa 71% 3.0mm
06/08:00pm ESE 16-20 kts 22.5°c 1011.7 hPa 70% 3.0mm
06/07:30pm ESE 16-20 kts 22.2°c 1011.3 hPa 74% 3.0mm
06/07:00pm SE 12-17 kts 22.6°c 1011.1 hPa 70% 3.0mm
06/06:30pm SE 12-17 kts 22.8°c 1010.6 hPa 68% 3.0mm
06/06:00pm SSE 11-15 kts 22.9°c 1010.3 hPa 69% 3.0mm
06/05:30pm SE 11-15 kts 23.3°c 1010.1 hPa 67% 3.0mm
06/05:00pm SE 13-17 kts 23.4°c 1009.9 hPa 66% 3.0mm
06/04:30pm SSE 14-20 kts 23.2°c 1010.0 hPa 69% 3.0mm
06/04:00pm SSE 13-18 kts 23.6°c 1010.1 hPa 67% 3.0mm
06/03:30pm SE 13-18 kts 23.6°c 1010.0 hPa 67% 3.0mm
06/03:00pm SE 12-17 kts 23.1°c 1010.2 hPa 68% 3.0mm
06/02:30pm SSE 14-19 kts 23.1°c 1010.1 hPa 65% 3.0mm
06/02:00pm SE 11-15 kts 23.1°c 1010.4 hPa 69% 3.0mm
06/01:30pm SE 11-13 kts 23.0°c 1010.5 hPa 76% 3.0mm
06/01:00pm S 14-20 kts 21.4°c 1010.7 hPa 82% 3.0mm
06/12:30pm S 11-18 kts 21.7°c 1010.7 hPa 75% 2.8mm
06/12:00pm ESE 11-14 kts 21.8°c 1010.9 hPa 79% 2.8mm
06/11:30am SE 11-18 kts 23.5°c 1010.7 hPa 71% 2.4mm
06/11:00am SE 12-16 kts 22.6°c 1010.8 hPa 71% 2.4mm
06/10:30am SSW 9-12 kts 21.0°c 1010.8 hPa 90% 2.4mm
06/10:00am SW 9-14 kts 19.8°c 1010.5 hPa 91% 2.4mm
06/09:30am SSW 12-17 kts 19.9°c 1010.4 hPa 91% 1.8mm
06/09:00am SSW 13-19 kts 19.9°c 1010.1 hPa 89% 6.2mm
06/08:30am SW 10-12 kts 19.9°c 1009.6 hPa 89% 6.0mm
06/08:00am SE 13-23 kts 21.4°c 1009.2 hPa 79% 6.0mm
06/07:30am SW 10-13 kts 19.1°c 1008.9 hPa 95% 6.0mm
06/07:00am SSE 15-20 kts 20.1°c 1008.3 hPa 92% 5.2mm
06/06:40am SSW 18-29 kts 19.5°c 1007.9 hPa 96% 2.4mm
06/06:30am SW 14-19 kts 19.2°c 1008.1 hPa 98% 1.6mm
06/06:00am SSW 17-23 kts 20.0°c 1007.8 hPa 94% 0.4mm
06/05:43am SSE 16-25 kts 22.0°c 1007.4 hPa 79% 0.0mm
06/05:38am SE 17-24 kts 23.0°c 1007.4 hPa 70% 0.0mm
06/05:30am ESE 21-25 kts 22.9°c 1007.1 hPa 73% 0.0mm
06/05:00am SE 18-24 kts 22.8°c 1006.8 hPa 76% 0.0mm
06/04:30am SE 15-20 kts 23.0°c 1007.0 hPa 72% 0.0mm
06/04:00am SE 17-21 kts 22.9°c 1006.9 hPa 74% 0.0mm
06/03:30am SE 18-25 kts 23.0°c 1007.0 hPa 73% 0.0mm
06/03:00am SE 16-22 kts 23.2°c 1007.2 hPa 74% 0.0mm
06/02:30am SE 16-22 kts 23.2°c 1007.3 hPa 74% 0.0mm
06/02:00am SE 21-27 kts 23.3°c 1007.3 hPa 76% 0.0mm
06/01:30am SE 19-26 kts 23.2°c 1007.4 hPa 77% 0.0mm
06/01:00am SE 22-28 kts 23.4°c 1007.5 hPa 77% 0.0mm
06/12:30am ESE 25-30 kts 23.7°c 1007.2 hPa 78% 0.0mm
06/12:00am SE 23-27 kts 23.8°c 1007.5 hPa 79% 0.0mm
Time Wind Speed Temp Pressure Rel. Hum Rain
05/11:30pm SE 17-23 kts 23.9°c 1007.7 hPa 78% 0.0mm
05/11:00pm SSE 17-23 kts 24.2°c 1007.8 hPa 77% 0.0mm
05/10:30pm SSE 15-21 kts 24.3°c 1007.8 hPa 72% 0.0mm
05/10:00pm SE 17-23 kts 24.5°c 1007.7 hPa 63% 0.0mm
05/09:30pm SE 15-21 kts 24.5°c 1007.7 hPa 63% 0.0mm
05/09:00pm SE 15-21 kts 24.5°c 1007.4 hPa 63% 0.0mm
05/08:30pm SE 14-19 kts 24.9°c 1006.8 hPa 58% 0.0mm
05/08:00pm SE 13-18 kts 24.9°c 1006.4 hPa 61% 0.0mm
05/07:30pm ESE 8-10 kts 24.6°c 1005.9 hPa 69% 0.0mm
05/07:00pm E 4-7 kts 25.5°c 1005.6 hPa 68% 0.0mm
05/06:30pm ENE 3-5 kts 26.9°c 1005.3 hPa 66% 0.0mm
05/06:00pm ENE 4-6 kts 27.1°c 1005.0 hPa 64% 0.0mm
05/05:30pm NE 7-9 kts 26.8°c 1004.8 hPa 60% 0.0mm
05/05:00pm NE 8-10 kts 27.1°c 1004.7 hPa 62% 0.0mm
05/04:30pm NE 8-11 kts 28.4°c 1004.7 hPa 65% 0.0mm
05/04:00pm NE 10-13 kts 27.5°c 1004.8 hPa 59% 0.0mm
05/03:30pm NE 11-13 kts 28.9°c 1004.9 hPa 62% 0.0mm
05/03:00pm NE 13-17 kts 28.4°c 1005.1 hPa 62% 0.0mm
05/02:30pm ENE 11-13 kts 29.0°c 1005.2 hPa 64% 0.0mm
05/02:00pm NE 10-12 kts 28.9°c 1005.5 hPa 62% 0.0mm
05/01:30pm NE 8-11 kts 29.0°c 1005.8 hPa 62% 0.0mm
05/01:00pm N 4-6 kts 28.2°c 1006.1 hPa 60% 0.0mm
05/12:30pm NNW 5-7 kts 27.1°c 1006.6 hPa 59% 0.0mm
05/12:00pm N 5-8 kts 26.6°c 1007.0 hPa 58% 0.0mm
05/11:30am N 6-8 kts 26.0°c 1007.6 hPa 60% 0.0mm
05/11:00am N 7-10 kts 25.2°c 1008.0 hPa 63% 0.0mm
05/10:30am N 8-12 kts 24.7°c 1008.3 hPa 64% 0.0mm
05/10:00am N 8-12 kts 24.1°c 1008.4 hPa 66% 0.0mm
05/09:30am N 6-10 kts 24.0°c 1008.4 hPa 66% 0.0mm
05/09:00am N 5-8 kts 23.2°c 1008.3 hPa 68% 0.2mm
05/08:30am NNW 5-7 kts 22.0°c 1008.2 hPa 70% 0.2mm
05/08:00am NNW 4-6 kts 20.6°c 1008.1 hPa 76% 0.2mm
05/07:30am NNW 4-9 kts 19.7°c 1008.1 hPa 75% 0.2mm
05/07:00am NW 4-6 kts 18.8°c 1007.9 hPa 79% 0.2mm
05/06:30am NW 5-9 kts 18.6°c 1007.9 hPa 79% 0.2mm
05/06:00am WNW 6-9 kts 18.5°c 1008.0 hPa 79% 0.2mm
05/05:30am WNW 6-9 kts 18.7°c 1008.0 hPa 78% 0.2mm
05/05:00am WNW 5-9 kts 18.9°c 1008.0 hPa 76% 0.2mm
05/04:30am WNW 7-9 kts 19.0°c 1008.1 hPa 76% 0.2mm
05/04:00am WNW 7-9 kts 18.6°c 1008.3 hPa 78% 0.2mm
05/03:30am WNW 7-9 kts 18.7°c 1008.6 hPa 79% 0.2mm
05/03:00am WNW 7-8 kts 19.4°c 1008.8 hPa 72% 0.2mm
05/02:30am WNW 6-7 kts 19.7°c 1009.3 hPa 70% 0.2mm
05/02:00am WNW 7-8 kts 19.5°c 1009.8 hPa 71% 0.2mm
05/01:30am WNW 6-8 kts 20.3°c 1010.2 hPa 66% 0.2mm
05/01:00am W 7-9 kts 20.5°c 1010.4 hPa 65% 0.2mm
05/12:30am WNW 6-7 kts 20.3°c 1010.6 hPa 66% 0.2mm
05/12:00am WNW 7-9 kts 20.1°c 1010.8 hPa 68% 0.2mm